Regional Weather Roundup
Issued by NWS Memphis, TN

Home | Current Version | Previous Version | Text Only | Print | Product List | Glossary On
Versions: 1 2 3 4 5 6 7 8 9 10 11 12 13 14 15 16 17 18 19 20 21 22 23 24 25 26 27 28 29 30 31 32 33 34 35 36 37 38 39 40 41 42 43 44 45 46 47 48 49 50
000
ASUS44 KMEG 011610
RWRMEG
MEMPHIS CWA HOURLY WEATHER ROUNDUP
NATIONAL WEATHER SERVICE MEMPHIS TN
1100 AM CDT WED JUL 01 2015

...WEST TENNESSEE...

CITY           SKY/WX    TMP DP  RH WIND       PRES   REMARKS
MEMPHIS INTL   CLOUDY    81  72  74 W9        30.03R
NWS MEMPHIS      N/A     80 N/A N/A MISG        N/A
JACKSON        CLOUDY    80  72  76 W12       30.01R
LEXINGTON      PTSUNNY   77  72  83 SW8       29.98R
DYERSBURG        N/A    N/A N/A N/A MISG        N/A
PARIS          CLOUDY    66  66 100 N5        30.04R


...EASTERN ARKANSAS...

CITY           SKY/WX    TMP DP  RH WIND       PRES   REMARKS
JONESBORO      CLOUDY    80  67  64 NE6       30.01R
WEST MEMPHIS   CLOUDY    80  74  81 SW7       30.02R
BATESVILLE     CLOUDY    79  70  73 SE3       30.03R
NEWPORT        CLOUDY    81  72  74 CALM      30.03R
WALNUT RIDGE   CLOUDY    75  66  73 NE7       30.00R
BLYTHEVILLE    CLOUDY    79  73  82 N9        30.00R
NW BLYTHEVILLE CLOUDY    79  70  73 N10       30.00R
STUTTGART      MOSUNNY   84  73  70 SW13      30.01R HX  91
PINE BLUFF     SUNNY     83  72  69 SW12      30.03R
MONTICELLO     MOSUNNY   84  73  69 W9        30.05R HX  90


...NORTH MISSISSIPPI...

CITY           SKY/WX    TMP DP  RH WIND       PRES   REMARKS
TUPELO         SUNNY     84  74  71 W9        30.03R HX  91
OXFORD         PTSUNNY   81  72  74 SW8       30.07R
OLIVE BRANCH   CLOUDY    79  75  89 SW8       30.04R
TUNICA         CLOUDY    81  72  74 SW6       30.03S
CLARKSDALE     CLOUDY    81  77  89 SW8       30.04R
CORINTH        MOSUNNY   81  72  74 SW6       30.01
GREENWOOD      CLOUDY    81  72  74 SW8       30.06R
COLUMBUS       MOSUNNY   83  73  70 W6        30.05R
STARKVILLE     CLOUDY    79  72  78 W3        30.07R
GOLDEN TRIANGL PTSUNNY   81  72  74 SW10      30.05S


...SOUTHEAST MISSOURI...

CITY           SKY/WX    TMP DP  RH WIND       PRES   REMARKS
WEST PLAINS    LGT RAIN  68  65  90 NE7       30.02F
POPLAR BLUFF   LGT RAIN  70  67  90 NW10      30.01R
CAPE GIRARDEAU CLOUDY    72  69  90 W13       29.99S


...NORTHWEST ALABAMA...

CITY           SKY/WX    TMP DP  RH WIND       PRES   REMARKS
MUSCLE SHOALS  PTSUNNY   78  70  76 VRB5      30.04R


...MIDDLE TENNESSEE...

CITY           SKY/WX    TMP DP  RH WIND       PRES   REMARKS
NASHVILLE      LGT RAIN  76  74  93 W3        30.00S
CLARKSVILLE    CLOUDY    76  71  85 W7        30.00R
COLUMBIA       PTSUNNY   81  75  83 SW5       29.99S


...WESTERN KENTUCKY...

CITY           SKY/WX    TMP DP  RH WIND       PRES   REMARKS
PADUCAH        CLOUDY    72  69  90 SW5       29.98S
FORT CAMPBELL  CLOUDY    76  72  87 W10       30.01R


...CENTRAL ARKANSAS...

CITY           SKY/WX    TMP DP  RH WIND       PRES   REMARKS
LITTLE ROCK    PTSUNNY   84  71  65 SW10      30.00S


SKY/WX REPORTED AS FAIR MEANS FEW OR NO CLOUDS BELOW
12 THOUSAND FEET.



USA.gov is the U.S. government's official web portal to all federal, state and local government web resources and services.